Location: Bocianicha
(51.5066°N, 19.2563°E)
Time: 14:38:28
(UTC+00:00)

Cosmos 2278 Rocket - Pass Details

Date: 15 June 2025
Orbit: 838 x 846 km, 71.0° (Epoch: 18 July)

Event Time Altitude Azimuth Distance (km) Brightness Sun altitude
Exits shadow 00:11:26 15° 177° (S) 2,129 3.7 -12.7°
Maximum altitude 00:15:49 44° 110° (ESE) 1,149 2.9 -12.5°
Drops below altitude 10° 00:21:09 10° 40° (NE) 2,473 5.9 -12.2°
Sets 00:23:42 0° 34° (NE) 3,413 7.2 -12.0°
